Location: �clusier
(49.9361°N, 2.7869°E)
Time: 07:09:55
(UTC+00:00)

SPOT 1/Viking Rocket - Pass Details

Date: 16 June 2021
Orbit: 778 x 793 km, 98.4° (Epoch: 02 August)

Event Time Altitude Azimuth Distance (km) Brightness Sun altitude
Exits shadow 21:05:01 - 177° (S) 2,839 5.9 -8.1°
Reaches altitude 10° 21:06:20 10° 180° (S) 2,325 5.5 -8.2°
Maximum altitude 21:11:23 57° 259° (W) 912 4.1 -8.7°
Drops below altitude 10° 21:16:28 10° 338° (NNW) 2,342 7.5 -9.2°
Sets 21:18:51 0° 343° (NNW) 3,275 8.4 -9.4°
